,,,PA_Meas_PMT16A,,PR_Meas_QMR101_102,,RH_Meas_QMH101,,SR_Meas_QMS101,,TA_Meas_QMH101,,GenWind,,GenWind,
date,time,status,PA,status,PR,status,RH,status,SR,status,TA,status,DirAvg,status,SpdAvg,
2009-03-02, 00:00:04,VALID,1003.27,VALID,0,VALID,85.6952,VALID,0,VALID,25.7869,VALID,338,VALID,0.510156,
2009-03-02, 00:01:04,VALID,1003.22,VALID,0,VALID,85.741,VALID,0,VALID,25.8064,VALID,348,VALID,0.617969,
2009-03-02, 00:02:04,VALID,1003.22,VALID,0,VALID,85.5655,VALID,0,VALID,25.8453,VALID,349,VALID,0.457812,
2009-03-02, 00:03:04,VALID,1003.16,VALID,0,VALID,85.2985,VALID,0,VALID,25.8648,VALID,346,VALID,0.778516,
2009-03-02, 00:04:04,VALID,1003.16,VALID,0,VALID,85.4511,VALID,0,VALID,25.8843,VALID,342,VALID,0.4,
2009-03-02, 00:05:04,VALID,1003.12,VALID,0,VALID,85.2833,VALID,0,VALID,25.9038,VALID,359,VALID,1.03945,
2009-03-02, 00:06:04,VALID,1003.1,VALID,0,VALID,85.1765,VALID,0,VALID,25.9642,VALID,1,VALID,0.445313,
2009-03-02, 00:07:04,VALID,1003.08,VALID,0,VALID,85.0849,VALID,0,VALID,25.9836,VALID,360,VALID,0.302344,
2009-03-02, 00:08:04,VALID,1003.05,VALID,0,VALID,84.9781,VALID,0,VALID,25.9817,VALID,339,VALID,0.433984,
2009-03-02, 00:09:04,VALID,1003.04,VALID,0,VALID,84.9323,VALID,0,VALID,26.0206,VALID,338,VALID,0.194922,
2009-03-02, 00:10:04,VALID,1003,VALID,0,VALID,84.9857,VALID,0,VALID,26.0401,VALID,345,VALID,0.230078,
2009-03-02, 00:11:04,VALID,1002.96,VALID,0,VALID,84.8332,VALID,0,VALID,26.0401,VALID,347,VALID,0.383984,
2009-03-02, 00:12:04,VALID,1002.95,VALID,0,VALID,84.8713,VALID,0,VALID,26.0596,VALID,2,VALID,0.332422,
2009-03-02, 00:13:04,VALID,1002.92,VALID,0,VALID,84.6882,VALID,0,VALID,26.0791,VALID,2,VALID,0.247266,
2009-03-02, 00:14:04,VALID,1002.89,VALID,0,VALID,84.2915,VALID,0,VALID,26.0985,VALID,355,VALID,0.935156,
2009-03-02, 00:15:04,VALID,1002.87,VALID,0,VALID,84.2534,VALID,0,VALID,26.1375,VALID,294,VALID,0.545703,
2009-03-02, 00:16:04,VALID,1002.84,VALID,0,VALID,84.1313,VALID,0,VALID,26.157,VALID,265,VALID,0.254297,
2009-03-02, 00:17:04,VALID,1002.85,VALID,0,VALID,84.3296,VALID,0,VALID,26.1765,VALID,265,VALID,0.192188,
2009-03-02, 00:18:04,VALID,1002.83,VALID,0,VALID,84.261,VALID,0,VALID,26.1959,VALID,276,VALID,0.446484,
2009-03-02, 00:19:04,VALID,1002.85,VALID,0,VALID,83.9863,VALID,0,VALID,26.1959,VALID,278,VALID,0.348437,
2009-03-02, 00:20:04,VALID,1002.83,VALID,0,VALID,84.2762,VALID,0,VALID,26.2349,VALID,291,VALID,0.294922,
2009-03-02, 00:21:04,VALID,1002.86,VALID,0,VALID,84.2991,VALID,0,VALID,26.2154,VALID,306,VALID,0.871875,
2009-03-02, 00:22:04,VALID,1002.94,VALID,0,VALID,84.5509,VALID,0,VALID,26.2154,VALID,231,VALID,0.708594,
2009-03-02, 00:23:04,VALID,1003.13,VALID,0,VALID,84.4288,VALID,0,VALID,26.1959,VALID,243,VALID,0.971875,
2009-03-02, 00:24:04,VALID,1003.28,VALID,0,VALID,84.9857,VALID,0,VALID,26.1765,VALID,260,VALID,0.961719,
2009-03-02, 00:25:04,VALID,1003.26,VALID,0,VALID,85.0315,VALID,0,VALID,26.0985,VALID,245,VALID,0.534766,
2009-03-02, 00:26:04,VALID,1003.27,VALID,0,VALID,82.5521,VALID,0.100563,VALID,25.9622,VALID,248,VALID,2.16094,
2009-03-02, 00:27:04,VALID,1003.43,VALID,0,VALID,82.4529,VALID,0,VALID,25.7265,VALID,253,VALID,2.04141,
2009-03-02, 00:28:04,VALID,1003.37,VALID,0,VALID,82.5903,VALID,0,VALID,25.5532,VALID,279,VALID,1.13672,
2009-03-02, 00:29:04,VALID,1003.35,VALID,0,VALID,81.9952,VALID,0,VALID,25.3584,VALID,222,VALID,1.37109,
2009-03-02, 00:30:04,VALID,1003.23,VALID,0,VALID,82.7886,VALID,0.100563,VALID,25.1813,VALID,131,VALID,1.29727,
2009-03-02, 00:31:04,VALID,1003.24,VALID,0,VALID,83.7575,VALID,0,VALID,25.0858,VALID,269,VALID,0.905078,
2009-03-02, 00:32:04,VALID,1003.16,VALID,0,VALID,84.5661,VALID,0,VALID,25.0274,VALID,301,VALID,2.83203,
2009-03-02, 00:33:04,VALID,1003.24,VALID,0,VALID,85.2375,VALID,0.100563,VALID,24.93,VALID,220,VALID,1.45508,
2009-03-02, 00:34:04,VALID,1003.16,VALID,0,VALID,85.1765,VALID,0,VALID,24.8308,VALID,298,VALID,1.97891,
2009-03-02, 00:35:04,VALID,1003.18,VALID,0,VALID,85.6113,VALID,0,VALID,24.7937,VALID,307,VALID,1.94922,
2009-03-02, 00:36:04,VALID,1003.23,VALID,0,VALID,85.7944,VALID,0.100563,VALID,24.7937,VALID,179,VALID,1.8582,
2009-03-02, 00:37:04,VALID,1003.21,VALID,0,VALID,86.4352,VALID,0.100563,VALID,24.7353,VALID,249,VALID,2.18047,
2009-03-02, 00:38:04,VALID,1003.2,VALID,0,VALID,86.0843,VALID,0,VALID,24.6361,VALID,291,VALID,3.17773,
2009-03-02, 00:39:04,VALID,1003.26,VALID,0,VALID,86.6641,VALID,0,VALID,24.5582,VALID,272,VALID,1.71602,
2009-03-02, 00:40:04,VALID,1003.25,VALID,0,VALID,86.748,VALID,0,VALID,24.5017,VALID,299,VALID,2.79023,
2009-03-02, 00:41:04,VALID,1003.17,VALID,0,VALID,86.9311,VALID,0.100563,VALID,24.3636,VALID,290,VALID,3.60508,
2009-03-02, 00:42:04,VALID,1003.11,VALID,0,VALID,87.6787,VALID,0,VALID,24.2857,VALID,264,VALID,1.86523,
2009-03-02, 00:43:04,VALID,1003.17,VALID,0,VALID,87.9991,VALID,0.100563,VALID,24.2078,VALID,256,VALID,0.992969,
2009-03-02, 00:44:04,VALID,1003.15,VALID,0,VALID,88.7391,VALID,0.100563,VALID,24.1105,VALID,311,VALID,2.04648,
2009-03-02, 00:45:04,VALID,1003.14,VALID,0,VALID,89.502,VALID,0.100563,VALID,24.0521,VALID,286,VALID,1.04805,
2009-03-02, 00:46:04,VALID,1003.11,VALID,0.5,VALID,89.5631,VALID,0,VALID,23.9548,VALID,303,VALID,2.93242,
2009-03-02, 00:47:04,VALID,1003.08,VALID,0,VALID,90.036,VALID,0.100563,VALID,23.8964,VALID,273,VALID,2.75234,
2009-03-02, 00:48:04,VALID,1003.07,VALID,0.5,VALID,90.5167,VALID,0.100563,VALID,23.8167,VALID,278,VALID,1.49961,
2009-03-02, 00:49:04,VALID,1003.06,VALID,0,VALID,91.0125,VALID,0.100563,VALID,23.7583,VALID,293,VALID,2.53125,
2009-03-02, 00:50:04,VALID,1003.1,VALID,0,VALID,91.3711,VALID,0,VALID,23.7601,VALID,240,VALID,1.15977,
2009-03-02, 00:51:04,VALID,1003.1,VALID,0,VALID,91.4703,VALID,0,VALID,23.7212,VALID,323,VALID,1.80078,
2009-03-02, 00:52:04,VALID,1003.09,VALID,0,VALID,91.6457,VALID,0,VALID,23.661,VALID,301,VALID,1.48516,
2009-03-02, 00:53:04,VALID,1003.09,VALID,0,VALID,91.7907,VALID,0.100563,VALID,23.661,VALID,313,VALID,0.985547,
2009-03-02, 00:54:04,VALID,1003.09,VALID,0,VALID,91.8975,VALID,0.100563,VALID,23.6823,VALID,253,VALID,0.504687,
2009-03-02, 00:55:04,VALID,1003.04,VALID,0,VALID,92.1035,VALID,0,VALID,23.6841,VALID,296,VALID,1.25898,
2009-03-02, 00:56:04,VALID,1003.05,VALID,0,VALID,92.2332,VALID,0,VALID,23.6841,VALID,290,VALID,1.54336,
2009-03-02, 00:57:04,VALID,1003.05,VALID,0,VALID,92.3934,VALID,0,VALID,23.7035,VALID,292,VALID,1.29023,
2009-03-02, 00:58:04,VALID,1002.98,VALID,0,VALID,92.0653,VALID,0,VALID,23.7035,VALID,290,VALID,2.38594,
2009-03-02, 00:59:04,VALID,1002.96,VALID,0,VALID,92.1416,VALID,0,VALID,23.6841,VALID,297,VALID,1.90937,
2009-03-02, 01:00:04,VALID,1002.93,VALID,0,VALID,91.9509,VALID,0,VALID,23.6646,VALID,279,VALID,1.79727,
2009-03-02, 01:01:04,VALID,1002.87,VALID,0,VALID,91.9433,VALID,0,VALID,23.6841,VALID,276,VALID,1.85391,
2009-03-02, 01:02:04,VALID,1002.85,VALID,0,VALID,91.9967,VALID,0,VALID,23.6646,VALID,295,VALID,1.84102,
2009-03-02, 01:03:04,VALID,1002.79,VALID,0,VALID,91.9051,VALID,0,VALID,23.6646,VALID,298,VALID,1.34922,
2009-03-02, 01:04:04,VALID,1002.74,VALID,0,VALID,91.7068,VALID,0,VALID,23.6239,VALID,295,VALID,1.71094,
2009-03-02, 01:05:04,VALID,1002.76,VALID,0,VALID,91.9204,VALID,0,VALID,23.6646,VALID,292,VALID,1.52148,
2009-03-02, 01:06:04,VALID,1002.71,VALID,0,VALID,91.8288,VALID,0,VALID,23.6257,VALID,322,VALID,1.68984,
2009-03-02, 01:07:04,VALID,1002.72,VALID,0,VALID,91.8288,VALID,0,VALID,23.6257,VALID,298,VALID,1.67148,
2009-03-02, 01:08:04,VALID,1002.72,VALID,0,VALID,91.8746,VALID,0,VALID,23.6257,VALID,302,VALID,2.02813,
2009-03-02, 01:09:04,VALID,1002.68,VALID,0,VALID,92.0653,VALID,0,VALID,23.6257,VALID,302,VALID,2.12109,
2009-03-02, 01:10:04,VALID,1002.65,VALID,0,VALID,92.0882,VALID,0,VALID,23.6044,VALID,288,VALID,1.88008,
2009-03-02, 01:11:04,VALID,1002.67,VALID,0,VALID,92.2866,VALID,0,VALID,23.6452,VALID,309,VALID,1.19219,
2009-03-02, 01:12:04,VALID,1002.65,VALID,0,VALID,92.3629,VALID,0,VALID,23.6452,VALID,266,VALID,2.13945,
2009-03-02, 01:13:04,VALID,1002.63,VALID,0,VALID,92.3629,VALID,0,VALID,23.6628,VALID,325,VALID,1.22344,
2009-03-02, 01:14:04,VALID,1002.63,VALID,0,VALID,92.3934,VALID,0,VALID,23.6628,VALID,303,VALID,1.54766,
2009-03-02, 01:15:04,VALID,1002.61,VALID,0,VALID,92.4163,VALID,0,VALID,23.7035,VALID,274,VALID,0.966797,
2009-03-02, 01:16:04,VALID,1002.6,VALID,0,VALID,92.4849,VALID,0,VALID,23.7425,VALID,260,VALID,0.759766,
2009-03-02, 01:17:04,VALID,1002.6,VALID,0,VALID,92.546,VALID,0.100563,VALID,23.7407,VALID,348,VALID,0.963672,
2009-03-02, 01:18:04,VALID,1002.57,VALID,0,VALID,92.5231,VALID,0,VALID,23.7601,VALID,309,VALID,0.993359,
2009-03-02, 01:19:04,VALID,1002.56,VALID,0,VALID,92.5002,VALID,0.100563,VALID,23.7814,VALID,287,VALID,1.55352,
2009-03-02, 01:20:04,VALID,1002.53,VALID,0,VALID,92.6375,VALID,0,VALID,23.7407,VALID,305,VALID,0.626953,
2009-03-02, 01:21:04,VALID,1002.47,VALID,0,VALID,92.6604,VALID,0,VALID,23.7796,VALID,296,VALID,2.11016,
2009-03-02, 01:22:04,VALID,1002.44,VALID,0,VALID,92.7519,VALID,0,VALID,23.7796,VALID,321,VALID,1.50586,
2009-03-02, 01:23:04,VALID,1002.43,VALID,0,VALID,92.8664,VALID,0,VALID,23.7991,VALID,283,VALID,0.764063,
2009-03-02, 01:24:04,VALID,1002.41,VALID,0,VALID,92.9579,VALID,0,VALID,23.8575,VALID,271,VALID,1.9457,
2009-03-02, 01:25:04,VALID,1002.42,VALID,0,VALID,92.8816,VALID,0,VALID,23.8982,VALID,293,VALID,1.87695,
2009-03-02, 01:26:04,VALID,1002.42,VALID,0,VALID,93.0495,VALID,0.100563,VALID,23.9371,VALID,257,VALID,0.843359,
2009-03-02, 01:27:04,VALID,1002.41,VALID,0,VALID,92.9961,VALID,0,VALID,23.9353,VALID,343,VALID,0.701953,
2009-03-02, 01:28:04,VALID,1002.38,VALID,0,VALID,93.0037,VALID,0,VALID,24.015,VALID,306,VALID,0.758594,
2009-03-02, 01:29:04,VALID,1002.37,VALID,0,VALID,93.0495,VALID,0,VALID,24.0132,VALID,268,VALID,1.41523,
2009-03-02, 01:30:04,VALID,1002.32,VALID,0,VALID,93.0113,VALID,0,VALID,24.0539,VALID,337,VALID,1.01992,
2009-03-02, 01:31:04,VALID,1002.31,VALID,0,VALID,93.0037,VALID,0,VALID,24.0929,VALID,274,VALID,1.3832,
2009-03-02, 01:32:04,VALID,1002.28,VALID,0,VALID,92.9732,VALID,0,VALID,24.0929,VALID,209,VALID,0.767969,
2009-03-02, 01:33:04,VALID,1002.22,VALID,0,VALID,93.0037,VALID,0,VALID,24.091,VALID,294,VALID,0.389453,
2009-03-02, 01:34:04,VALID,1002.2,VALID,0,VALID,93.0266,VALID,0.100563,VALID,24.1105,VALID,268,VALID,0.295312,
2009-03-02, 01:35:04,VALID,1002.17,VALID,0,VALID,93.0113,VALID,0,VALID,24.13,VALID,284,VALID,0.696484,
2009-03-02, 01:36:04,VALID,1002.17,VALID,0,VALID,93.141,VALID,0,VALID,24.1707,VALID,293,VALID,0.672266,
2009-03-02, 01:37:04,VALID,1002.16,VALID,0,VALID,93.1105,VALID,0,VALID,24.1707,VALID,305,VALID,0.464453,
2009-03-02, 01:38:04,VALID,1002.15,VALID,0,VALID,93.0571,VALID,0,VALID,24.1902,VALID,287,VALID,1.15898,
2009-03-02, 01:39:04,VALID,1002.15,VALID,0,VALID,93.0113,VALID,0,VALID,24.2078,VALID,29,VALID,0.534766,
2009-03-02, 01:40:04,VALID,1002.15,VALID,0,VALID,92.874,VALID,0,VALID,24.2291,VALID,306,VALID,0.214453,
2009-03-02, 01:41:04,VALID,1002.13,VALID,0,VALID,92.7214,VALID,0,VALID,24.1902,VALID,308,VALID,0.40625,
2009-03-02, 01:42:04,VALID,1002.12,VALID,0,VALID,92.6756,VALID,0,VALID,24.1671,VALID,304,VALID,0.91875,
2009-03-02, 01:43:04,VALID,1002.1,VALID,0,VALID,92.5078,VALID,0,VALID,24.2097,VALID,264,VALID,0.891797,
2009-03-02, 01:44:04,VALID,1002.14,VALID,0,VALID,92.3476,VALID,0,VALID,24.2078,VALID,279,VALID,1.12969,
2009-03-02, 01:45:04,VALID,1002.13,VALID,0,VALID,92.2866,VALID,0,VALID,24.2273,VALID,275,VALID,0.465234,
2009-03-02, 01:46:04,VALID,1002.13,VALID,0,VALID,92.1035,VALID,0,VALID,24.2468,VALID,254,VALID,0.586719,
2009-03-02, 01:47:04,VALID,1002.15,VALID,0,VALID,91.9509,VALID,0,VALID,24.2681,VALID,291,VALID,0.614844,
2009-03-02, 01:48:04,VALID,1002.16,VALID,0,VALID,91.928,VALID,0,VALID,24.2662,VALID,313,VALID,0.450391,
2009-03-02, 01:49:04,VALID,1002.15,VALID,0,VALID,91.9738,VALID,0,VALID,24.2662,VALID,325,VALID,0.383203,
2009-03-02, 01:50:04,VALID,1002.13,VALID,0,VALID,91.7602,VALID,0,VALID,24.2875,VALID,326,VALID,0.814453,
2009-03-02, 01:51:04,VALID,1002.13,VALID,0,VALID,91.8594,VALID,0,VALID,24.2875,VALID,319,VALID,0.651172,
2009-03-02, 01:52:04,VALID,1002.12,VALID,0,VALID,91.8594,VALID,0,VALID,24.3459,VALID,321,VALID,0.320313,
2009-03-02, 01:53:04,VALID,1002.15,VALID,0,VALID,91.9204,VALID,0,VALID,24.3246,VALID,321,VALID,0,
2009-03-02, 01:54:04,VALID,1002.09,VALID,0,VALID,91.9128,VALID,0,VALID,24.3849,VALID,319,VALID,0.296875,
2009-03-02, 01:55:04,VALID,1002.09,VALID,0,VALID,91.7907,VALID,0,VALID,24.3441,VALID,311,VALID,0.505078,
2009-03-02, 01:56:04,VALID,1002.08,VALID,0,VALID,91.9433,VALID,0,VALID,24.3849,VALID,304,VALID,0.402344,
2009-03-02, 01:57:04,VALID,1002.05,VALID,0,VALID,91.7907,VALID,0,VALID,24.383,VALID,305,VALID,0.408203,
2009-03-02, 01:58:04,VALID,1002.04,VALID,0,VALID,91.7144,VALID,0,VALID,24.4238,VALID,296,VALID,0.651953,
2009-03-02, 01:59:04,VALID,1002.02,VALID,0,VALID,91.6915,VALID,0,VALID,24.4025,VALID,276,VALID,0.798437,
2009-03-02, 02:00:04,VALID,1002,VALID,0,VALID,91.5008,VALID,0,VALID,24.4238,VALID,267,VALID,1.27109,
2009-03-02, 02:01:04,VALID,1001.94,VALID,0,VALID,91.455,VALID,0,VALID,24.4433,VALID,283,VALID,0.785547,
2009-03-02, 02:02:04,VALID,1001.99,VALID,0,VALID,91.3711,VALID,0,VALID,24.4414,VALID,219,VALID,0.117578,
2009-03-02, 02:03:04,VALID,1001.95,VALID,0,VALID,91.4016,VALID,0,VALID,24.4414,VALID,219,VALID,0.200391,
2009-03-02, 02:04:04,VALID,1001.94,VALID,0,VALID,91.3635,VALID,0,VALID,24.4628,VALID,285,VALID,0.723828,
2009-03-02, 02:05:04,VALID,1001.94,VALID,0,VALID,91.4169,VALID,0,VALID,24.4628,VALID,295,VALID,0.850781,
2009-03-02, 02:06:04,VALID,1001.92,VALID,0,VALID,91.3482,VALID,0,VALID,24.4238,VALID,284,VALID,0.746094,
2009-03-02, 02:07:04,VALID,1001.92,VALID,0,VALID,91.3787,VALID,0,VALID,24.4433,VALID,302,VALID,0.710938,
2009-03-02, 02:08:04,VALID,1001.95,VALID,0,VALID,91.1499,VALID,0.100563,VALID,24.4025,VALID,303,VALID,0.588672,
2009-03-02, 02:09:04,VALID,1001.94,VALID,0,VALID,90.9134,VALID,0.100563,VALID,24.383,VALID,227,VALID,0.721094,
2009-03-02, 02:10:04,VALID,1001.93,VALID,0,VALID,90.593,VALID,0,VALID,24.3849,VALID,239,VALID,0.44375,
2009-03-02, 02:11:04,VALID,1001.88,VALID,0,VALID,90.0894,VALID,0,VALID,24.3459,VALID,154,VALID,0.26875,
2009-03-02, 02:12:04,VALID,1001.87,VALID,0,VALID,90.1581,VALID,0,VALID,24.3459,VALID,155,VALID,0.0507813,
2009-03-02, 02:13:04,VALID,1001.84,VALID,0,VALID,90.181,VALID,0,VALID,24.3246,VALID,155,VALID,0.00234375,
2009-03-02, 02:14:04,VALID,1001.82,VALID,0,VALID,90.0818,VALID,0,VALID,24.3654,VALID,221,VALID,0.542578,
2009-03-02, 02:15:04,VALID,1001.79,VALID,0,VALID,89.441,VALID,0,VALID,24.3052,VALID,262,VALID,0.44375,
2009-03-02, 02:16:04,VALID,1001.79,VALID,0,VALID,89.5097,VALID,0,VALID,24.3052,VALID,270,VALID,0.361719,
2009-03-02, 02:17:04,VALID,1001.76,VALID,0,VALID,89.38,VALID,0,VALID,24.3246,VALID,282,VALID,0.640234,
2009-03-02, 02:18:04,VALID,1001.77,VALID,0,VALID,88.7391,VALID,0,VALID,24.3265,VALID,257,VALID,0.701172,
2009-03-02, 02:19:04,VALID,1001.74,VALID,0,VALID,88.7544,VALID,0,VALID,24.3265,VALID,260,VALID,0.407031,
2009-03-02, 02:20:04,VALID,1001.72,VALID,0,VALID,88.495,VALID,0.100563,VALID,24.3246,VALID,304,VALID,0.464063,
2009-03-02, 02:21:04,VALID,1001.72,VALID,0,VALID,87.9,VALID,0,VALID,24.3246,VALID,229,VALID,0.719922,
2009-03-02, 02:22:04,VALID,1001.7,VALID,0,VALID,88.0449,VALID,0,VALID,24.3441,VALID,270,VALID,0.369141,
2009-03-02, 02:23:04,VALID,1001.71,VALID,0,VALID,88.0983,VALID,0,VALID,24.3636,VALID,278,VALID,0.145313,
2009-03-02, 02:24:04,VALID,1001.68,VALID,0,VALID,88.1517,VALID,0,VALID,24.3849,VALID,246,VALID,0.469141,
2009-03-02, 02:25:04,VALID,1001.71,VALID,0,VALID,88.228,VALID,0,VALID,24.383,VALID,263,VALID,0.423438,
2009-03-02, 02:26:04,VALID,1001.69,VALID,0,VALID,87.9839,VALID,0,VALID,24.3849,VALID,290,VALID,0.476172,
2009-03-02, 02:27:04,VALID,1001.69,VALID,0,VALID,87.6635,VALID,0,VALID,24.383,VALID,323,VALID,0.508594,
2009-03-02, 02:28:04,VALID,1001.67,VALID,0,VALID,87.2057,VALID,0,VALID,24.383,VALID,204,VALID,0.542578,
2009-03-02, 02:29:04,VALID,1001.64,VALID,0,VALID,87.0837,VALID,0,VALID,24.4025,VALID,285,VALID,0.272266,
2009-03-02, 02:30:04,VALID,1001.64,VALID,0,VALID,86.8167,VALID,0,VALID,24.4628,VALID,227,VALID,0.728516,
2009-03-02, 02:31:04,VALID,1001.63,VALID,0,VALID,86.9387,VALID,0,VALID,24.4628,VALID,297,VALID,0.648438,
2009-03-02, 02:32:04,VALID,1001.64,VALID,0,VALID,86.7556,VALID,0,VALID,24.4822,VALID,306,VALID,0.765234,
2009-03-02, 02:33:04,VALID,1001.64,VALID,0,VALID,87.0303,VALID,0,VALID,24.4804,VALID,315,VALID,0.671484,
2009-03-02, 02:34:04,VALID,1001.65,VALID,0,VALID,87.1523,VALID,0,VALID,24.4804,VALID,299,VALID,0.228906,
2009-03-02, 02:35:04,VALID,1001.65,VALID,0,VALID,87.2896,VALID,0,VALID,24.5017,VALID,296,VALID,0.5375,
2009-03-02, 02:36:04,VALID,1001.63,VALID,0,VALID,87.3354,VALID,0,VALID,24.5017,VALID,285,VALID,0.326562,
2009-03-02, 02:37:04,VALID,1001.65,VALID,0,VALID,87.5261,VALID,0,VALID,24.4804,VALID,333,VALID,0.541406,
2009-03-02, 02:38:04,VALID,1001.65,VALID,0,VALID,87.7321,VALID,0,VALID,24.4414,VALID,341,VALID,0.465625,
2009-03-02, 02:39:04,VALID,1001.64,VALID,0,VALID,88.1212,VALID,0,VALID,24.422,VALID,341,VALID,0.143359,
2009-03-02, 02:40:04,VALID,1001.64,VALID,0,VALID,87.9228,VALID,0,VALID,24.4043,VALID,297,VALID,0.373047,
2009-03-02, 02:41:04,VALID,1001.67,VALID,0,VALID,88.3043,VALID,0,VALID,24.3812,VALID,297,VALID,0.108984,
2009-03-02, 02:42:04,VALID,1001.66,VALID,0,VALID,88.5255,VALID,0,VALID,24.4043,VALID,322,VALID,0.471875,
2009-03-02, 02:43:04,VALID,1001.66,VALID,0,VALID,88.3501,VALID,0,VALID,24.3441,VALID,355,VALID,0.115234,
2009-03-02, 02:44:04,VALID,1001.63,VALID,0,VALID,88.4645,VALID,0,VALID,24.3654,VALID,355,VALID,0.0371094,
2009-03-02, 02:45:04,VALID,1001.67,VALID,0,VALID,88.7315,VALID,0,VALID,24.3654,VALID,355,VALID,0.0449219,
2009-03-02, 02:46:04,VALID,1001.68,VALID,0,VALID,88.8231,VALID,0,VALID,24.3459,VALID,355,VALID,0.0640625,
2009-03-02, 02:47:04,VALID,1001.68,VALID,0,VALID,88.9451,VALID,0,VALID,24.3478,VALID,355,VALID,0.0839844,
2009-03-02, 02:48:04,VALID,1001.68,VALID,0,VALID,89.2121,VALID,0,VALID,24.2857,VALID,355,VALID,0.1375,
2009-03-02, 02:49:04,VALID,1001.7,VALID,0,VALID,89.3571,VALID,0,VALID,24.2875,VALID,355,VALID,0.161328,
2009-03-02, 02:50:04,VALID,1001.68,VALID,0,VALID,89.5173,VALID,0,VALID,24.2468,VALID,355,VALID,0.0832031,
2009-03-02, 02:51:04,VALID,1001.68,VALID,0,VALID,89.6775,VALID,0,VALID,24.2681,VALID,355,VALID,0.226953,
2009-03-02, 02:52:04,VALID,1001.68,VALID,0,VALID,89.9064,VALID,0,VALID,24.2486,VALID,355,VALID,0.230078,
2009-03-02, 02:53:04,VALID,1001.7,VALID,0,VALID,90.12,VALID,0,VALID,24.2078,VALID,355,VALID,0.412891,
2009-03-02, 02:54:04,VALID,1001.67,VALID,0,VALID,90.1352,VALID,0,VALID,24.1689,VALID,355,VALID,0.375391,
2009-03-02, 02:55:04,VALID,1001.69,VALID,0,VALID,90.3946,VALID,0,VALID,24.1494,VALID,353,VALID,0.573828,
2009-03-02, 02:56:04,VALID,1001.66,VALID,0,VALID,90.5472,VALID,0,VALID,24.13,VALID,350,VALID,0.828906,
2009-03-02, 02:57:04,VALID,1001.7,VALID,0,VALID,90.448,VALID,0,VALID,24.0929,VALID,352,VALID,0.513281,
2009-03-02, 02:58:04,VALID,1001.72,VALID,0,VALID,90.5701,VALID,0,VALID,24.0716,VALID,353,VALID,0.250781,
2009-03-02, 02:59:04,VALID,1001.69,VALID,0,VALID,90.8905,VALID,0,VALID,24.1105,VALID,353,VALID,0.205078,
2009-03-02, 03:00:04,VALID,1001.69,VALID,0,VALID,90.7455,VALID,0,VALID,24.1318,VALID,297,VALID,0.376172,
2009-03-02, 03:01:04,VALID,1001.73,VALID,0,VALID,90.6921,VALID,0,VALID,24.091,VALID,284,VALID,0.682422,
2009-03-02, 03:02:04,VALID,1001.72,VALID,0,VALID,90.5853,VALID,0,VALID,24.13,VALID,344,VALID,0.790234,
2009-03-02, 03:03:04,VALID,1001.75,VALID,0,VALID,90.6845,VALID,0,VALID,24.1513,VALID,342,VALID,0.0972656,
2009-03-02, 03:04:04,VALID,1001.71,VALID,0,VALID,90.7608,VALID,0,VALID,24.1689,VALID,342,VALID,0,
2009-03-02, 03:05:04,VALID,1001.78,VALID,0,VALID,90.7074,VALID,0,VALID,24.1689,VALID,276,VALID,0.460938,
2009-03-02, 03:06:04,VALID,1001.77,VALID,0,VALID,90.7303,VALID,0,VALID,24.1689,VALID,282,VALID,0.709766,
2009-03-02, 03:07:04,VALID,1001.76,VALID,0,VALID,90.7684,VALID,0,VALID,24.1689,VALID,290,VALID,0.644531,
2009-03-02, 03:08:04,VALID,1001.77,VALID,0,VALID,90.7379,VALID,0,VALID,24.1689,VALID,289,VALID,0.789453,
2009-03-02, 03:09:04,VALID,1001.79,VALID,0,VALID,90.8447,VALID,0,VALID,24.1494,VALID,295,VALID,0.217969,
2009-03-02, 03:10:04,VALID,1001.83,VALID,0,VALID,90.9591,VALID,0,VALID,24.1689,VALID,318,VALID,0.385156,
2009-03-02, 03:11:04,VALID,1001.85,VALID,0,VALID,90.9668,VALID,0,VALID,24.1689,VALID,289,VALID,0.699219,
2009-03-02, 03:12:04,VALID,1001.85,VALID,0,VALID,91.0736,VALID,0,VALID,24.1494,VALID,293,VALID,0.839453,
2009-03-02, 03:13:04,VALID,1001.83,VALID,0,VALID,91.0812,VALID,0,VALID,24.1494,VALID,289,VALID,0.949219,
2009-03-02, 03:14:04,VALID,1001.84,VALID,0,VALID,90.982,VALID,0,VALID,24.13,VALID,291,VALID,1.00156,
2009-03-02, 03:15:04,VALID,1001.84,VALID,0,VALID,91.0888,VALID,0,VALID,24.13,VALID,279,VALID,0.850781,
2009-03-02, 03:16:04,VALID,1001.87,VALID,0,VALID,91.1651,VALID,0,VALID,24.1494,VALID,281,VALID,0.453125,
2009-03-02, 03:17:04,VALID,1001.87,VALID,0,VALID,91.249,VALID,0,VALID,24.1494,VALID,281,VALID,0.1375,
2009-03-02, 03:18:04,VALID,1001.87,VALID,0,VALID,91.3558,VALID,0,VALID,24.1689,VALID,281,VALID,0,
2009-03-02, 03:19:04,VALID,1001.93,VALID,0,VALID,91.3635,VALID,0,VALID,24.1689,VALID,281,VALID,0.00234375,
2009-03-02, 03:20:04,VALID,1001.93,VALID,0,VALID,91.3864,VALID,0,VALID,24.1494,VALID,281,VALID,0.0117188,
2009-03-02, 03:21:04,VALID,1001.95,VALID,0,VALID,91.4321,VALID,0,VALID,24.1494,VALID,281,VALID,0.130469,
2009-03-02, 03:22:04,VALID,1001.98,VALID,0,VALID,91.4779,VALID,0,VALID,24.1707,VALID,281,VALID,0.0296875,
2009-03-02, 03:23:04,VALID,1002,VALID,0,VALID,91.5466,VALID,0,VALID,24.1707,VALID,281,VALID,0.0496094,
2009-03-02, 03:24:04,VALID,1002.01,VALID,0,VALID,91.5008,VALID,0,VALID,24.1513,VALID,339,VALID,0.344141,
2009-03-02, 03:25:04,VALID,1002.02,VALID,0,VALID,91.4779,VALID,0,VALID,24.13,VALID,345,VALID,0.475391,
2009-03-02, 03:26:04,VALID,1002.02,VALID,0,VALID,91.4321,VALID,0,VALID,24.1513,VALID,349,VALID,0.829687,
2009-03-02, 03:27:04,VALID,1002.06,VALID,0,VALID,91.4932,VALID,0,VALID,24.1105,VALID,350,VALID,0.444141,
2009-03-02, 03:28:04,VALID,1002.06,VALID,0,VALID,91.5161,VALID,0,VALID,24.1105,VALID,350,VALID,0.364844,
2009-03-02, 03:29:04,VALID,1002.06,VALID,0,VALID,91.4626,VALID,0,VALID,24.091,VALID,352,VALID,0.757813,
2009-03-02, 03:30:04,VALID,1002.09,VALID,0,VALID,91.5313,VALID,0,VALID,24.0716,VALID,354,VALID,0.403125,
2009-03-02, 03:31:04,VALID,1002.11,VALID,0,VALID,91.5237,VALID,0,VALID,24.091,VALID,354,VALID,0.354688,
2009-03-02, 03:32:04,VALID,1002.1,VALID,0,VALID,91.5389,VALID,0,VALID,24.091,VALID,354,VALID,0.0652344,
2009-03-02, 03:33:04,VALID,1002.14,VALID,0,VALID,91.6534,VALID,0,VALID,24.0716,VALID,354,VALID,0.00195313,
2009-03-02, 03:34:04,VALID,1002.15,VALID,0,VALID,91.7525,VALID,0,VALID,24.1123,VALID,354,VALID,0,
2009-03-02, 03:35:04,VALID,1002.16,VALID,0,VALID,91.6686,VALID,0,VALID,24.0929,VALID,354,VALID,0.38125,
2009-03-02, 03:36:04,VALID,1002.18,VALID,0,VALID,91.7068,VALID,0,VALID,24.1123,VALID,354,VALID,0.156641,
2009-03-02, 03:37:04,VALID,1002.19,VALID,0,VALID,91.6,VALID,0,VALID,24.091,VALID,354,VALID,0.148828,
2009-03-02, 03:38:04,VALID,1002.21,VALID,0,VALID,91.6686,VALID,0.100563,VALID,24.0697,VALID,314,VALID,0.2,
2009-03-02, 03:39:04,VALID,1002.23,VALID,0,VALID,91.8059,VALID,0,VALID,24.0697,VALID,300,VALID,0.128125,
2009-03-02, 03:40:04,VALID,1002.21,VALID,0,VALID,91.8822,VALID,0,VALID,24.1105,VALID,290,VALID,0.742969,
2009-03-02, 03:41:04,VALID,1002.22,VALID,0,VALID,91.8441,VALID,0,VALID,24.13,VALID,296,VALID,0.0136719,
2009-03-02, 03:42:04,VALID,1002.24,VALID,0,VALID,91.8746,VALID,0,VALID,24.1494,VALID,282,VALID,0.256641,
2009-03-02, 03:43:04,VALID,1002.24,VALID,0,VALID,91.7983,VALID,0,VALID,24.1494,VALID,304,VALID,0.326562,